This demonstration page uses our WeatherBlox Daily Observations layout. Learn more.

Left ArrowRight Arrow

Hourly Observations for July 17, 2020

Temp ( °F °C ) Dew Point ( °F °C ) Humidity (%) Winds ( mph kmh ) Pressure ( in mb ) Visibility ( mi km ) Precip ( " mm )
12:15 am 00:15 Clear 77 25 70 21 79 79 S 15 24 30.15 1021 10 16.0934 0 0
12:35 am 00:35 Clear 77 25 72 22 83 83 S 7 11 30.15 1021 10 16.0934 0 0
12:55 am 00:55 Clear 77 25 72 22 83 83 S 8 13 30.15 1021 10 16.0934 0 0
1:15 am 01:15 Partly Cloudy 77 25 72 22 83 83 S 9 15 30.15 1021 10 16.0934 0 0
1:35 am 01:35 Partly Cloudy 75 24 72 22 89 89 S 6 9 30.15 1021 10 16.0934 0 0
1:55 am 01:55 Partly Cloudy 75 24 70 21 83 83 S 9 15 30.15 1021 10 16.0934 0 0
2:15 am 02:15 Partly Cloudy 75 24 70 21 83 83 S 9 15 30.15 1021 10 16.0934 0 0
2:35 am 02:35 Mostly Cloudy 73 23 70 21 89 89 S 7 11 30.15 1021 10 16.0934 0 0
2:55 am 02:55 Mostly Cloudy 73 23 70 21 89 89 S 9 15 30.15 1021 10 16.0934 0 0
3:15 am 03:15 Cloudy 73 23 70 21 89 89 S 6 9 30.16 1021 10 16.0934 0 0
3:55 am 03:55 Mostly Cloudy 73 23 72 22 94 94 S 6 9 30.14 1021 10 16.0934 0 0
4:35 am 04:35 Mostly Cloudy 73 23 70 21 89 89 S 9 15 30.12 1020 10 16.0934 0 0
4:55 am 04:55 Mostly Cloudy 73 23 70 21 89 89 SSW 6 9 30.13 1020 10 16.0934 0 0
5:15 am 05:15 Cloudy 72 22 70 21 94 94 SW 3 6 30.14 1021 10 16.0934 0 0
5:35 am 05:35 Cloudy 72 22 70 21 94 94 S 8 13 30.12 1020 10 16.0934 0 0
5:55 am 05:55 Cloudy 72 22 70 21 94 94 S 5 7 30.13 1020 10 16.0934 0 0
6:15 am 06:15 Cloudy 72 22 70 21 94 94 S 8 13 30.13 1020 10 16.0934 0 0
6:35 am 06:35 Mostly Cloudy 72 22 70 21 94 94 S 7 11 30.12 1020 10 16.0934 0 0
6:55 am 06:55 Partly Cloudy 72 22 70 21 94 94 S 6 9 30.12 1020 10 16.0934 0 0
7:15 am 07:15 Sunny 72 22 70 21 94 94 SSW 7 11 30.13 1020 10 16.0934 0 0
7:35 am 07:35 Sunny 73 23 70 21 89 89 S 5 7 30.13 1020 10 16.0934 0 0
7:55 am 07:55 Partly Cloudy 75 24 70 21 83 83 WSW 6 9 30.14 1021 10 16.0934 0 0
8:15 am 08:15 Sunny 77 25 72 22 83 83 WSW 7 11 30.13 1020 10 16.0934 0 0
8:35 am 08:35 Sunny 77 25 72 22 83 83 SW 6 9 30.13 1020 10 16.0934 0 0
8:55 am 08:55 Sunny 77 25 70 21 79 79 SSW 5 7 30.13 1020 10 16.0934 0 0
9:15 am 09:15 Sunny 79 26 72 22 79 79 WSW 5 7 30.13 1020 10 16.0934 0 0
9:35 am 09:35 Sunny 79 26 72 22 79 79 Calm 30.12 1020 10 16.0934 0 0
9:55 am 09:55 Sunny 81 27 72 22 74 74 Calm 30.13 1020 10 16.0934 0 0
10:15 am 10:15 Sunny 82 28 72 22 70 70 Calm 30.13 1020 10 16.0934 0 0
10:35 am 10:35 Sunny 84 29 73 23 70 70 W 5 7 30.12 1020 10 16.0934 0 0
10:55 am 10:55 Sunny 84 29 73 23 70 70 WNW 6 9 30.11 1020 10 16.0934 0 0
11:15 am 11:15 Sunny 86 30 73 23 66 66 W 6 9 30.11 1020 10 16.0934 0 0
11:35 am 11:35 Partly Cloudy 88 31 73 23 62 62 NW 9 15 30.11 1020 10 16.0934 0 0
11:55 am 11:55 Partly Cloudy 88 31 73 23 62 62 NW 8 13 30.11 1020 10 16.0934 0 0
12:15 pm 12:15 Partly Cloudy 90 32 73 23 59 59 NNW 8 13 30.11 1019 10 16.0934 0 0
12:35 pm 12:35 Partly Cloudy 90 32 73 23 59 59 NNW 14 22 30.11 1019 10 16.0934 0 0
12:55 pm 12:55 Partly Cloudy 90 32 70 21 52 52 NNW 13 20 30.11 1019 10 16.0934 0 0
1:15 pm 13:15 Partly Cloudy 90 32 70 21 52 52 N 10 17 30.11 1019 10 16.0934 0 0
1:35 pm 13:35 Sunny 91 33 68 20 46 46 NW 7 11 30.1 1019 10 16.0934 0 0
1:55 pm 13:55 Sunny 91 33 68 20 46 46 NW 10 17 30.09 1019 10 16.0934 0 0
2:15 pm 14:15 Sunny 91 33 68 20 46 46 N 9 15 30.09 1019 10 16.0934 0 0
2:35 pm 14:35 Sunny 91 33 68 20 46 46 NNW 8 13 30.08 1019 10 16.0934 0 0
2:55 pm 14:55 Sunny 91 33 68 20 46 46 N 5 7 30.08 1019 10 16.0934 0 0
3:15 pm 15:15 Sunny 91 33 66 19 44 44 NW 13 20 30.07 1018 10 16.0934 0 0
3:35 pm 15:35 Sunny 93 34 66 19 41 41 NNW 12 19 30.06 1018 10 16.0934 0 0
3:55 pm 15:55 Sunny 91 33 68 20 46 46 N 7 11 30.05 1018 10 16.0934 0 0
4:15 pm 16:15 Sunny 91 33 68 20 46 46 NW 6 9 30.05 1018 10 16.0934 0 0
4:35 pm 16:35 Sunny 93 34 66 19 41 41 NNW 7 11 30.05 1018 10 16.0934 0 0
4:55 pm 16:55 Sunny 91 33 66 19 44 44 NNE 7 11 30.03 1017 10 16.0934 0 0
5:15 pm 17:15 Partly Cloudy 93 34 66 19 41 41 NNW 12 19 30.03 1017 10 16.0934 0 0
5:35 pm 17:35 Partly Cloudy 93 34 68 20 44 44 NE 8 13 30.03 1017 10 16.0934 0 0
5:55 pm 17:55 Partly Cloudy 93 34 66 19 41 41 NNW 6 9 30.03 1017 10 16.0934 0 0
6:15 pm 18:15 Partly Cloudy 91 33 66 19 44 44 N 6 9 30.03 1017 10 16.0934 0 0
6:35 pm 18:35 Sunny 91 33 66 19 44 44 N 5 7 30.03 1017 10 16.0934 0 0
6:55 pm 18:55 Sunny 91 33 66 19 44 44 N 7 11 30.03 1017 10 16.0934 0 0
7:15 pm 19:15 Sunny 91 33 64 18 41 41 NNE 5 7 30.03 1017 10 16.0934 0 0
7:35 pm 19:35 Partly Cloudy 91 33 64 18 41 41 NNE 3 6 30.03 1017 10 16.0934 0 0
7:55 pm 19:55 Mostly Cloudy 91 33 66 19 44 44 ENE 5 7 30.04 1017 10 16.0934 0 0
8:15 pm 20:15 Cloudy 90 32 66 19 46 46 NE 3 6 30.06 1018 10 16.0934 0 0
8:35 pm 20:35 Mostly Cloudy 90 32 66 19 46 46 NNE 3 6 30.06 1018 10 16.0934 0 0
8:55 pm 20:55 Partly Cloudy 88 31 68 20 52 52 N 3 6 30.06 1018 10 16.0934 0 0
9:15 pm 21:15 Partly Cloudy 86 30 70 21 59 59 N 3 6 30.06 1018 10 16.0934 0 0
9:35 pm 21:35 Partly Cloudy 82 28 72 22 70 70 Calm 30.06 1018 10 16.0934 0 0
9:55 pm 21:55 Partly Cloudy 82 28 70 21 66 66 N 3 6 30.07 1018 10 16.0934 0 0
10:15 pm 22:15 Mostly Cloudy 82 28 70 21 66 66 Calm 30.07 1018 10 16.0934 0 0
10:35 pm 22:35 Partly Cloudy 82 28 70 21 66 66 Calm 30.07 1018 10 16.0934 0 0
10:55 pm 22:55 Clear 81 27 72 22 74 74 Calm 30.07 1018 10 16.0934 0 0
11:15 pm 23:15 Mostly Cloudy 81 27 72 22 74 74 Calm 30.08 1019 10 16.0934 0 0
11:35 pm 23:35 Cloudy 79 26 72 22 79 79 Calm 30.08 1019 10 16.0934 0 0
11:55 pm 23:55 Cloudy 79 26 72 22 79 79 Calm 30.08 1019 10 16.0934 0 0

Powered by AerisWeather